STARLINK-31812, 59800

Orbit data source: Space-Track

STARLINK-31812, 59800 is a payload satellite owned by SpaceX/Seattle (US) in LEO that was launched on Sat, 18 May 2024 UTC via an FALCON 9 launch vehicle from the Air Force Eastern Test Range (AFETR). Payload-class satellites include a variety of spacecraft equipped with specific instruments for various scientific and technological missions. These include communications satellites like Starlink; space stations such as the ISS; scientific satellites like the Hubble; Earth observation satellites from companies like Planet Labs, Umbra, and HawkEye 360; GPS; miniature CubeSats for education and research; and military/defense satellites.

Loading next visibility...
Identifier
59800, 2024-093U
Orbit
LEO
Country
Flag of USUS
Related business
Manufacturer
SpaceX/Seattle
Mission
Operational Commercial Communications
Bus & Motor
STARLINK V2M, Unknown motor
Mass
730 kg wet, ~700 kg dry
Launch date (UTC)
2024-05-18 (2 years ago)
Launch vehicle
FALCON 9
Launch site
Air Force Eastern Test Range (AFETR)
Object type
Payload
Rocket body
Debris
Shape & HBR
Box + 2 Pan, 17.7 m
Radar Cross Section
33.884 m², Large (>1 m²)

Expand to show TLE details & history
Last TLE update: 22 hours ago

TLE from 22 hours ago
0 STARLINK-31812
1 59800U 24093U   26125.63643709  .00002898  00000-0  11478-3 0  9995
2 59800  43.0001 247.3745 0001210 285.6136  74.4582 15.27583494111471
Epoch: 2026-05-05T15:16Z
TLE epoch observation values (Epoch: 2026-05-05T15:16:28.164Z)
Latitude
-0.00003°
Longitude
154.74869°
Altitude
482.592 km
Speed
7.626 km/s
True Right ascension
16h 29m 29s
True Declination
0° 00' 00"
Sunlit
Object was in full shadow at epoch
Visualization orbit readout
Latitude
Unknown
Longitude
Unknown
Altitude
Unknown
Speed
Unknown
Apparent Right ascension
Unknown
Apparent Declination
Unknown
Sunlit
N/A
Visualization observer readout
Local Sidereal Time
21:18:26
Azimuth
Unknown
Elevation
Unknown
Doppler factor
Unknown
Orbital elements
Apogee altitude
485.814 km
Perigee altitude
484.153 km
Semi-major axis
6,863.121 km
Eccentricity
0.00012
Inclination
43.0001°
RAAN
247.3745°
Arg. of periapsis
285.6136°
True anomaly
74.47156°
Mean anomaly
74.4582°
Eccentric anomaly
74.46488°
Mean motion
3.81734 °/min
Orbital period
94.31 mins
BSTAR
0.00011478
Loading maneuver chart data...
Computing Atmospheric mass density...
Loading historical data...
Loading historical data...
Loading historical data...
Loading historical data...
Loading historical data...
Loading historical data...
Loading historical data...

Documentation

Showing up to 5 results
|